Time,TemperatureF,DewpointF,PressureIn,WindDirection,WindDirectionDegrees,WindSpeedMPH,WindSpeedGustMPH,Humidity,HourlyPrecipIn,Conditions,Clouds,dailyrainin,SoftwareType,DateUTC
2013-10-22 00:00:00,49.6,44.6,29.98,West,259,2.0,2.0,83,0.00,,,0.00,Wunderground v.1.15,2013-10-22 04:00:00,
2013-10-22 00:05:00,49.6,44.6,29.97,WSW,250,2.0,3.0,83,0.00,,,0.00,Wunderground v.1.15,2013-10-22 04:05:00,
2013-10-22 00:10:00,49.5,44.6,29.97,SSW,202,2.0,2.0,83,0.00,,,0.00,Wunderground v.1.15,2013-10-22 04:10:00,
2013-10-22 00:15:00,49.4,44.8,29.97,SSW,202,1.0,8.0,84,0.00,,,0.00,Wunderground v.1.15,2013-10-22 04:15:00,
2013-10-22 00:20:00,49.1,44.5,29.97,WSW,239,1.0,8.0,84,0.00,,,0.00,Wunderground v.1.15,2013-10-22 04:20:00,
2013-10-22 00:25:00,49.1,44.8,29.97,SW,229,2.0,8.0,85,0.00,,,0.00,Wunderground v.1.15,2013-10-22 04:25:00,
2013-10-22 00:30:00,49.1,44.8,29.97,SSW,207,2.0,2.0,85,0.00,,,0.00,Wunderground v.1.15,2013-10-22 04:30:00,
2013-10-22 00:35:00,49.0,44.7,29.97,WSW,243,1.0,8.0,85,0.00,,,0.00,Wunderground v.1.15,2013-10-22 04:35:00,
2013-10-22 00:40:00,48.8,44.5,29.97,SW,223,0.0,8.0,85,0.00,,,0.00,Wunderground v.1.15,2013-10-22 04:40:00,
2013-10-22 00:45:00,48.8,44.8,29.97,SW,221,1.0,8.0,86,0.00,,,0.00,Wunderground v.1.15,2013-10-22 04:45:00,
2013-10-22 00:50:00,48.8,44.8,29.97,SSW,198,1.0,8.0,86,0.00,,,0.00,Wunderground v.1.15,2013-10-22 04:50:00,
2013-10-22 00:55:00,49.0,45.0,29.96,WSW,258,2.0,8.0,86,0.00,,,0.00,Wunderground v.1.15,2013-10-22 04:55:00,
2013-10-22 01:05:00,48.9,44.9,29.96,SW,217,1.0,8.0,86,0.00,,,0.00,Wunderground v.1.15,2013-10-22 05:05:00,
2013-10-22 01:10:00,48.9,44.9,29.96,SW,234,2.0,8.0,86,0.00,,,0.00,Wunderground v.1.15,2013-10-22 05:10:00,
2013-10-22 01:15:00,49.0,45.0,29.96,SW,219,2.0,8.0,86,0.00,,,0.00,Wunderground v.1.15,2013-10-22 05:15:00,
2013-10-22 01:20:00,48.9,44.9,29.96,SW,223,1.0,8.0,86,0.00,,,0.00,Wunderground v.1.15,2013-10-22 05:20:00,
2013-10-22 01:25:00,48.9,44.9,29.96,WSW,240,2.0,8.0,86,0.00,,,0.00,Wunderground v.1.15,2013-10-22 05:25:00,
2013-10-22 01:30:00,48.8,44.8,29.95,SSW,209,2.0,8.0,86,0.00,,,0.00,Wunderground v.1.15,2013-10-22 05:30:00,
2013-10-22 01:35:00,48.9,45.2,29.95,SW,225,2.0,8.0,87,0.00,,,0.00,Wunderground v.1.15,2013-10-22 05:35:00,
2013-10-22 01:45:00,48.9,45.2,29.95,SSW,205,2.0,8.0,87,0.00,,,0.00,Wunderground v.1.15,2013-10-22 05:45:00,
2013-10-22 01:50:00,49.0,45.3,29.95,WSW,241,2.0,2.0,87,0.00,,,0.00,Wunderground v.1.15,2013-10-22 05:50:00,
2013-10-22 01:55:00,49.0,45.3,29.95,WSW,240,2.0,8.0,87,0.00,,,0.00,Wunderground v.1.15,2013-10-22 05:55:00,
2013-10-22 02:00:00,48.8,44.8,29.95,SW,224,1.0,8.0,86,0.00,,,0.00,Wunderground v.1.15,2013-10-22 06:00:00,
2013-10-22 02:05:00,48.7,45.0,29.95,SW,229,1.0,8.0,87,0.00,,,0.00,Wunderground v.1.15,2013-10-22 06:05:00,
2013-10-22 02:10:00,48.7,45.0,29.95,West,267,1.0,1.0,87,0.00,,,0.00,Wunderground v.1.15,2013-10-22 06:10:00,
2013-10-22 02:15:00,48.5,44.8,29.95,SW,225,0.0,8.0,87,0.00,,,0.00,Wunderground v.1.15,2013-10-22 06:15:00,
2013-10-22 02:25:00,48.3,44.9,29.95,SW,226,0.0,8.0,88,0.00,,,0.00,Wunderground v.1.15,2013-10-22 06:25:00,
2013-10-22 02:30:00,48.4,45.0,29.95,SSW,205,0.0,8.0,88,0.00,,,0.00,Wunderground v.1.15,2013-10-22 06:30:00,
2013-10-22 02:35:00,48.6,45.2,29.94,WSW,256,1.0,8.0,88,0.00,,,0.00,Wunderground v.1.15,2013-10-22 06:35:00,
2013-10-22 02:40:00,48.5,45.1,29.94,WSW,241,1.0,8.0,88,0.00,,,0.00,Wunderground v.1.15,2013-10-22 06:40:00,
2013-10-22 02:45:00,48.3,44.9,29.93,WSW,241,0.0,8.0,88,0.00,,,0.00,Wunderground v.1.15,2013-10-22 06:45:00,
2013-10-22 02:50:00,48.2,45.1,29.93,SW,221,1.0,1.0,89,0.00,,,0.00,Wunderground v.1.15,2013-10-22 06:50:00,
2013-10-22 02:55:00,48.2,45.1,29.93,SW,221,0.0,8.0,89,0.00,,,0.00,Wunderground v.1.15,2013-10-22 06:55:00,
2013-10-22 03:00:00,48.2,44.8,29.93,SW,221,0.0,8.0,88,0.00,,,0.00,Wunderground v.1.15,2013-10-22 07:00:00,
2013-10-22 03:10:00,47.9,44.8,29.92,SW,221,0.0,8.0,89,0.00,,,0.00,Wunderground v.1.15,2013-10-22 07:10:00,
2013-10-22 03:15:00,47.8,44.7,29.92,SW,221,0.0,8.0,89,0.00,,,0.00,Wunderground v.1.15,2013-10-22 07:15:00,
2013-10-22 03:20:00,47.7,44.9,29.92,SW,221,0.0,8.0,90,0.00,,,0.00,Wunderground v.1.15,2013-10-22 07:20:00,
2013-10-22 03:25:00,47.6,44.8,29.92,SW,221,0.0,8.0,90,0.00,,,0.00,Wunderground v.1.15,2013-10-22 07:25:00,
2013-10-22 03:30:00,47.7,45.2,29.91,SW,221,0.0,8.0,91,0.00,,,0.00,Wunderground v.1.15,2013-10-22 07:30:00,
2013-10-22 03:35:00,47.8,45.0,29.91,SW,221,0.0,8.0,90,0.00,,,0.00,Wunderground v.1.15,2013-10-22 07:35:00,
2013-10-22 03:40:00,47.8,45.0,29.91,West,273,0.0,8.0,90,0.00,,,0.00,Wunderground v.1.15,2013-10-22 07:40:00,
2013-10-22 03:50:00,47.5,44.7,29.91,West,273,0.0,8.0,90,0.00,,,0.00,Wunderground v.1.15,2013-10-22 07:50:00,
2013-10-22 03:55:00,47.3,44.5,29.90,West,273,0.0,8.0,90,0.00,,,0.00,Wunderground v.1.15,2013-10-22 07:55:00,
2013-10-22 04:00:00,47.0,44.5,29.90,West,273,0.0,8.0,91,0.00,,,0.00,Wunderground v.1.15,2013-10-22 08:00:00,
2013-10-22 04:05:00,46.9,44.4,29.90,West,273,0.0,8.0,91,0.00,,,0.00,Wunderground v.1.15,2013-10-22 08:05:00,
2013-10-22 04:15:00,46.5,44.6,29.90,West,273,0.0,8.0,93,0.00,,,0.00,Wunderground v.1.15,2013-10-22 08:15:00,
2013-10-22 04:20:00,46.4,44.5,29.90,West,273,0.0,8.0,93,0.00,,,0.00,Wunderground v.1.15,2013-10-22 08:20:00,
2013-10-22 04:25:00,46.2,44.3,29.90,West,273,0.0,8.0,93,0.00,,,0.00,Wunderground v.1.15,2013-10-22 08:25:00,
2013-10-22 04:35:00,45.9,44.3,29.90,West,273,0.0,8.0,94,0.00,,,0.00,Wunderground v.1.15,2013-10-22 08:35:00,
2013-10-22 04:40:00,45.9,44.3,29.90,West,273,0.0,8.0,94,0.00,,,0.00,Wunderground v.1.15,2013-10-22 08:40:00,
2013-10-22 04:45:00,45.8,44.2,29.90,West,273,0.0,8.0,94,0.00,,,0.00,Wunderground v.1.15,2013-10-22 08:45:00,
2013-10-22 04:50:00,45.9,44.5,29.89,West,273,0.0,8.0,95,0.00,,,0.00,Wunderground v.1.15,2013-10-22 08:50:00,
2013-10-22 04:55:00,45.9,44.5,29.90,West,273,0.0,8.0,95,0.00,,,0.00,Wunderground v.1.15,2013-10-22 08:55:00,
2013-10-22 05:00:00,46.0,44.6,29.90,West,273,0.0,8.0,95,0.00,,,0.00,Wunderground v.1.15,2013-10-22 09:00:00,
2013-10-22 05:05:00,46.0,44.6,29.90,West,273,0.0,8.0,95,0.00,,,0.00,Wunderground v.1.15,2013-10-22 09:05:00,
2013-10-22 05:10:00,46.3,45.2,29.89,West,273,0.0,8.0,96,0.00,,,0.00,Wunderground v.1.15,2013-10-22 09:10:00,
2013-10-22 05:20:00,46.9,45.5,29.89,WNW,287,0.0,8.0,95,0.00,,,0.00,Wunderground v.1.15,2013-10-22 09:20:00,
2013-10-22 05:25:00,46.9,45.3,29.89,WNW,286,0.0,8.0,94,0.00,,,0.00,Wunderground v.1.15,2013-10-22 09:25:00,
2013-10-22 05:30:00,47.0,45.4,29.88,West,264,0.0,8.0,94,0.00,,,0.00,Wunderground v.1.15,2013-10-22 09:30:00,
2013-10-22 05:35:00,47.0,45.1,29.88,West,264,0.0,8.0,93,0.00,,,0.00,Wunderground v.1.15,2013-10-22 09:35:00,
2013-10-22 05:45:00,46.6,44.7,29.88,West,264,0.0,8.0,93,0.00,,,0.00,Wunderground v.1.15,2013-10-22 09:45:00,
2013-10-22 05:50:00,46.3,44.7,29.88,West,264,0.0,8.0,94,0.00,,,0.00,Wunderground v.1.15,2013-10-22 09:50:00,
2013-10-22 05:55:00,46.1,44.5,29.88,West,264,0.0,8.0,94,0.00,,,0.00,Wunderground v.1.15,2013-10-22 09:55:00,
2013-10-22 06:00:00,46.0,44.6,29.87,West,264,0.0,8.0,95,0.00,,,0.00,Wunderground v.1.15,2013-10-22 10:00:00,
2013-10-22 06:05:00,45.9,44.5,29.87,West,264,0.0,8.0,95,0.00,,,0.00,Wunderground v.1.15,2013-10-22 10:05:00,
2013-10-22 06:10:00,46.0,44.9,29.87,West,264,0.0,8.0,96,0.00,,,0.00,Wunderground v.1.15,2013-10-22 10:10:00,
2013-10-22 06:15:00,46.0,44.9,29.87,West,264,0.0,8.0,96,0.00,,,0.00,Wunderground v.1.15,2013-10-22 10:15:00,
2013-10-22 06:20:00,46.0,44.9,29.87,West,264,0.0,8.0,96,0.00,,,0.00,Wunderground v.1.15,2013-10-22 10:20:00,
2013-10-22 06:25:00,46.0,44.9,29.87,West,264,0.0,8.0,96,0.00,,,0.00,Wunderground v.1.15,2013-10-22 10:25:00,
2013-10-22 06:30:00,46.0,44.9,29.87,West,264,0.0,8.0,96,0.00,,,0.00,Wunderground v.1.15,2013-10-22 10:30:00,
2013-10-22 06:40:00,46.1,45.3,29.86,West,264,0.0,8.0,97,0.00,,,0.00,Wunderground v.1.15,2013-10-22 10:40:00,
2013-10-22 06:45:00,46.3,45.5,29.87,West,264,0.0,8.0,97,0.00,,,0.00,Wunderground v.1.15,2013-10-22 10:45:00,
2013-10-22 06:50:00,46.4,45.6,29.86,West,264,0.0,8.0,97,0.00,,,0.00,Wunderground v.1.15,2013-10-22 10:50:00,
2013-10-22 06:55:00,46.7,45.9,29.86,WNW,288,0.0,8.0,97,0.00,,,0.00,Wunderground v.1.15,2013-10-22 10:55:00,
2013-10-22 07:00:00,46.7,45.6,29.85,WNW,288,0.0,8.0,96,0.00,,,0.00,Wunderground v.1.15,2013-10-22 11:00:00,
2013-10-22 07:05:00,46.7,45.6,29.85,WNW,288,0.0,8.0,96,0.00,,,0.00,Wunderground v.1.15,2013-10-22 11:05:00,
2013-10-22 07:10:00,46.7,45.6,29.85,WNW,288,0.0,8.0,96,0.00,,,0.00,Wunderground v.1.15,2013-10-22 11:10:00,
2013-10-22 07:20:00,47.2,46.4,29.85,WNW,287,1.0,8.0,97,0.00,,,0.00,Wunderground v.1.15,2013-10-22 11:20:00,
2013-10-22 07:25:00,47.4,46.3,29.85,WNW,296,1.0,8.0,96,0.00,,,0.00,Wunderground v.1.15,2013-10-22 11:25:00,
2013-10-22 07:30:00,47.6,46.5,29.85,WNW,295,1.0,8.0,96,0.00,,,0.00,Wunderground v.1.15,2013-10-22 11:30:00,
2013-10-22 07:35:00,47.6,46.5,29.85,WNW,295,0.0,8.0,96,0.00,,,0.00,Wunderground v.1.15,2013-10-22 11:35:00,
2013-10-22 07:40:00,47.7,46.6,29.85,WSW,244,0.0,8.0,96,0.00,,,0.00,Wunderground v.1.15,2013-10-22 11:40:00,
2013-10-22 07:45:00,47.9,46.8,29.85,WNW,288,0.0,8.0,96,0.00,,,0.00,Wunderground v.1.15,2013-10-22 11:45:00,
2013-10-22 07:50:00,48.3,46.9,29.84,SW,222,1.0,1.0,95,0.00,,,0.00,Wunderground v.1.15,2013-10-22 11:50:00,
2013-10-22 07:55:00,48.6,47.2,29.84,West,277,1.0,8.0,95,0.00,,,0.00,Wunderground v.1.15,2013-10-22 11:55:00,
2013-10-22 08:05:00,48.8,47.2,29.84,WSW,240,0.0,8.0,94,0.00,,,0.00,Wunderground v.1.15,2013-10-22 12:05:00,
2013-10-22 08:10:00,48.8,47.2,29.84,SW,220,1.0,8.0,94,0.00,,,0.00,Wunderground v.1.15,2013-10-22 12:10:00,
2013-10-22 08:15:00,49.0,47.3,29.84,SW,221,1.0,8.0,94,0.00,,,0.00,Wunderground v.1.15,2013-10-22 12:15:00,
2013-10-22 08:20:00,49.1,47.4,29.84,SW,229,1.0,1.0,94,0.00,,,0.00,Wunderground v.1.15,2013-10-22 12:20:00,
2013-10-22 08:25:00,49.4,47.7,29.84,SW,225,1.0,8.0,94,0.00,,,0.00,Wunderground v.1.15,2013-10-22 12:25:00,
2013-10-22 08:30:00,49.6,47.9,29.84,West,279,1.0,8.0,94,0.00,,,0.00,Wunderground v.1.15,2013-10-22 12:30:00,
2013-10-22 08:40:00,50.1,48.2,29.83,SW,223,1.0,8.0,93,0.00,,,0.00,Wunderground v.1.15,2013-10-22 12:40:00,
2013-10-22 08:45:00,50.3,48.4,29.83,WSW,237,1.0,8.0,93,0.00,,,0.00,Wunderground v.1.15,2013-10-22 12:45:00,
2013-10-22 08:50:00,50.6,48.7,29.83,West,264,2.0,2.0,93,0.00,,,0.00,Wunderground v.1.15,2013-10-22 12:50:00,
2013-10-22 08:55:00,50.7,48.5,29.83,SSW,207,2.0,4.0,92,0.00,,,0.00,Wunderground v.1.15,2013-10-22 12:55:00,
2013-10-22 09:00:00,50.9,48.7,29.83,WSW,240,2.0,8.0,92,0.00,,,0.00,Wunderground v.1.15,2013-10-22 13:00:00,
2013-10-22 09:05:00,51.0,48.8,29.83,West,262,2.0,8.0,92,0.00,,,0.00,Wunderground v.1.15,2013-10-22 13:05:00,
2013-10-22 09:10:00,51.0,48.8,29.83,SW,223,1.0,8.0,92,0.00,,,0.00,Wunderground v.1.15,2013-10-22 13:10:00,
2013-10-22 09:15:00,51.1,48.6,29.83,WSW,255,2.0,8.0,91,0.00,,,0.00,Wunderground v.1.15,2013-10-22 13:15:00,
2013-10-22 09:20:00,51.2,49.0,29.84,SSW,192,2.0,8.0,92,0.00,,,0.00,Wunderground v.1.15,2013-10-22 13:20:00,
2013-10-22 09:25:00,51.2,48.7,29.83,West,267,3.0,8.0,91,0.00,,,0.00,Wunderground v.1.15,2013-10-22 13:25:00,
2013-10-22 09:35:00,51.3,48.8,29.82,SW,223,2.0,8.0,91,0.00,,,0.00,Wunderground v.1.15,2013-10-22 13:35:00,
2013-10-22 09:40:00,51.8,49.3,29.82,West,276,2.0,8.0,91,0.00,,,0.00,Wunderground v.1.15,2013-10-22 13:40:00,
2013-10-22 09:45:00,52.5,49.9,29.82,SW,226,3.0,8.0,91,0.00,,,0.00,Wunderground v.1.15,2013-10-22 13:45:00,
2013-10-22 09:50:00,53.1,49.9,29.82,SSW,204,3.0,8.0,89,0.00,,,0.00,Wunderground v.1.15,2013-10-22 13:50:00,
2013-10-22 09:55:00,53.2,50.0,29.82,WSW,239,3.0,8.0,89,0.00,,,0.00,Wunderground v.1.15,2013-10-22 13:55:00,
2013-10-22 10:00:00,53.1,49.3,29.82,SW,231,3.0,8.0,87,0.00,,,0.00,Wunderground v.1.15,2013-10-22 14:00:00,
2013-10-22 10:05:00,53.0,49.2,29.82,SW,222,4.0,8.0,87,0.00,,,0.00,Wunderground v.1.15,2013-10-22 14:05:00,
2013-10-22 10:15:00,52.6,49.1,29.82,WSW,246,4.0,8.0,88,0.00,,,0.00,Wunderground v.1.15,2013-10-22 14:15:00,
2013-10-22 10:20:00,52.5,49.4,29.82,SSW,212,4.0,4.0,89,0.00,,,0.00,Wunderground v.1.15,2013-10-22 14:20:00,
2013-10-22 10:25:00,52.5,49.0,29.82,SSW,195,3.0,8.0,88,0.00,,,0.00,Wunderground v.1.15,2013-10-22 14:25:00,
2013-10-22 10:30:00,52.4,48.9,29.82,SW,236,3.0,3.0,88,0.00,,,0.00,Wunderground v.1.15,2013-10-22 14:30:00,
2013-10-22 10:35:00,52.4,48.9,29.82,WSW,238,4.0,4.0,88,0.00,,,0.00,Wunderground v.1.15,2013-10-22 14:35:00,
2013-10-22 10:40:00,52.5,49.4,29.82,SW,228,3.0,3.0,89,0.00,,,0.00,Wunderground v.1.15,2013-10-22 14:40:00,
2013-10-22 10:45:00,52.6,48.8,29.82,SW,229,3.0,8.0,87,0.00,,,0.00,Wunderground v.1.15,2013-10-22 14:45:00,
2013-10-22 10:50:00,52.8,49.3,29.81,West,271,3.0,8.0,88,0.00,,,0.00,Wunderground v.1.15,2013-10-22 14:50:00,
2013-10-22 10:55:00,53.1,49.3,29.81,South,180,2.0,8.0,87,0.00,,,0.00,Wunderground v.1.15,2013-10-22 14:55:00,
2013-10-22 11:00:00,53.3,49.5,29.81,SSW,207,3.0,3.0,87,0.00,,,0.00,Wunderground v.1.15,2013-10-22 15:00:00,
2013-10-22 11:10:00,53.9,49.5,29.81,SSW,198,3.0,8.0,85,0.00,,,0.00,Wunderground v.1.15,2013-10-22 15:10:00,
2013-10-22 11:15:00,54.2,49.8,29.81,West,280,4.0,8.0,85,0.00,,,0.00,Wunderground v.1.15,2013-10-22 15:15:00,
2013-10-22 11:20:00,54.0,49.6,29.81,SSW,194,5.0,5.0,85,0.00,,,0.00,Wunderground v.1.15,2013-10-22 15:20:00,
2013-10-22 11:25:00,54.0,49.6,29.80,SW,225,4.0,8.0,85,0.00,,,0.00,Wunderground v.1.15,2013-10-22 15:25:00,
2013-10-22 11:30:00,54.0,49.3,29.80,WSW,245,3.0,8.0,84,0.00,,,0.00,Wunderground v.1.15,2013-10-22 15:30:00,
2013-10-22 11:35:00,54.3,49.6,29.80,WSW,254,3.0,8.0,84,0.00,,,0.00,Wunderground v.1.15,2013-10-22 15:35:00,
2013-10-22 11:40:00,54.8,50.1,29.81,SW,221,3.0,8.0,84,0.00,,,0.00,Wunderground v.1.15,2013-10-22 15:40:00,
2013-10-22 11:45:00,55.4,50.3,29.80,West,266,4.0,8.0,83,0.00,,,0.00,Wunderground v.1.15,2013-10-22 15:45:00,
2013-10-22 11:50:00,56.0,50.6,29.80,SSW,198,4.0,8.0,82,0.00,,,0.00,Wunderground v.1.15,2013-10-22 15:50:00,
2013-10-22 12:00:00,56.2,50.8,29.80,SSW,202,4.0,8.0,82,0.00,,,0.00,Wunderground v.1.15,2013-10-22 16:00:00,
2013-10-22 12:05:00,56.7,50.3,29.80,West,271,3.0,8.0,79,0.00,,,0.00,Wunderground v.1.15,2013-10-22 16:05:00,
2013-10-22 12:10:00,56.9,50.1,29.80,SW,222,3.0,3.0,78,0.00,,,0.00,Wunderground v.1.15,2013-10-22 16:10:00,
2013-10-22 12:15:00,57.2,50.1,29.80,WSW,241,3.0,8.0,77,0.00,,,0.00,Wunderground v.1.15,2013-10-22 16:15:00,
2013-10-22 12:20:00,57.2,49.7,29.79,SW,217,3.0,8.0,76,0.00,,,0.00,Wunderground v.1.15,2013-10-22 16:20:00,
2013-10-22 12:25:00,57.4,49.5,29.79,WNW,285,3.0,8.0,75,0.00,,,0.00,Wunderground v.1.15,2013-10-22 16:25:00,
2013-10-22 12:35:00,57.3,48.7,29.78,SSW,207,1.0,8.0,73,0.00,,,0.00,Wunderground v.1.15,2013-10-22 16:35:00,
2013-10-22 12:40:00,57.1,48.9,29.78,West,281,1.0,1.0,74,0.00,,,0.00,Wunderground v.1.15,2013-10-22 16:40:00,
2013-10-22 12:45:00,56.8,47.9,29.78,WSW,257,2.0,3.0,72,0.00,,,0.00,Wunderground v.1.15,2013-10-22 16:45:00,
2013-10-22 12:50:00,56.6,48.0,29.77,West,277,2.0,2.0,73,0.00,,,0.00,Wunderground v.1.15,2013-10-22 16:50:00,
2013-10-22 12:55:00,56.5,48.3,29.77,ESE,108,1.0,8.0,74,0.00,,,0.00,Wunderground v.1.15,2013-10-22 16:55:00,
2013-10-22 13:00:00,56.3,47.8,29.78,SW,234,1.0,8.0,73,0.00,,,0.00,Wunderground v.1.15,2013-10-22 17:00:00,
2013-10-22 13:05:00,56.1,47.9,29.78,SW,230,1.0,8.0,74,0.00,,,0.00,Wunderground v.1.15,2013-10-22 17:05:00,
2013-10-22 13:10:00,56.0,47.8,29.78,East,88,1.0,8.0,74,0.00,,,0.00,Wunderground v.1.15,2013-10-22 17:10:00,
2013-10-22 13:15:00,55.9,47.7,29.78,SW,219,1.0,8.0,74,0.00,,,0.00,Wunderground v.1.15,2013-10-22 17:15:00,
2013-10-22 13:20:00,55.7,47.5,29.78,SW,223,1.0,1.0,74,0.00,,,0.00,Wunderground v.1.15,2013-10-22 17:20:00,
2013-10-22 13:30:00,55.5,47.7,29.77,SSW,206,0.0,8.0,75,0.00,,,0.00,Wunderground v.1.15,2013-10-22 17:30:00,
2013-10-22 13:35:00,55.3,48.2,29.77,SW,236,1.0,8.0,77,0.00,,,0.00,Wunderground v.1.15,2013-10-22 17:35:00,
2013-10-22 13:40:00,55.1,48.0,29.77,SW,236,0.0,8.0,77,0.00,,,0.00,Wunderground v.1.15,2013-10-22 17:40:00,
2013-10-22 13:45:00,55.0,47.9,29.76,WSW,255,0.0,8.0,77,0.00,,,0.00,Wunderground v.1.15,2013-10-22 17:45:00,
2013-10-22 13:50:00,54.9,48.2,29.76,WSW,250,1.0,1.0,78,0.00,,,0.00,Wunderground v.1.15,2013-10-22 17:50:00,
2013-10-22 13:55:00,55.0,48.3,29.76,WSW,250,0.0,8.0,78,0.00,,,0.00,Wunderground v.1.15,2013-10-22 17:55:00,
2013-10-22 14:00:00,55.0,48.6,29.76,WSW,243,0.0,8.0,79,0.00,,,0.00,Wunderground v.1.15,2013-10-22 18:00:00,
2013-10-22 14:10:00,55.2,48.5,29.76,SSW,212,1.0,8.0,78,0.00,,,0.00,Wunderground v.1.15,2013-10-22 18:10:00,
2013-10-22 14:15:00,55.1,47.7,29.75,South,182,2.0,8.0,76,0.00,,,0.00,Wunderground v.1.15,2013-10-22 18:15:00,
2013-10-22 14:20:00,55.0,47.9,29.75,WSW,238,2.0,8.0,77,0.00,,,0.00,Wunderground v.1.15,2013-10-22 18:20:00,
2013-10-22 14:25:00,55.2,48.1,29.75,West,273,1.0,8.0,77,0.00,,,0.00,Wunderground v.1.15,2013-10-22 18:25:00,
2013-10-22 14:30:00,55.4,48.3,29.75,WSW,252,1.0,8.0,77,0.00,,,0.00,Wunderground v.1.15,2013-10-22 18:30:00,
2013-10-22 14:35:00,55.5,47.7,29.75,WSW,240,1.0,8.0,75,0.00,,,0.00,Wunderground v.1.15,2013-10-22 18:35:00,
2013-10-22 14:40:00,55.6,48.2,29.75,WSW,254,1.0,8.0,76,0.00,,,0.00,Wunderground v.1.15,2013-10-22 18:40:00,
2013-10-22 14:50:00,55.6,48.2,29.75,West,259,1.0,1.0,76,0.00,,,0.00,Wunderground v.1.15,2013-10-22 18:50:00,
2013-10-22 14:55:00,55.7,48.2,29.74,West,259,1.0,8.0,76,0.00,,,0.00,Wunderground v.1.15,2013-10-22 18:55:00,
2013-10-22 15:00:00,55.6,47.8,29.75,SW,216,1.0,1.0,75,0.00,,,0.00,Wunderground v.1.15,2013-10-22 19:00:00,
2013-10-22 15:05:00,55.7,47.9,29.75,WSW,238,0.0,2.0,75,0.00,,,0.00,Wunderground v.1.15,2013-10-22 19:05:00,
2013-10-22 15:10:00,55.7,47.9,29.75,SW,220,0.0,8.0,75,0.00,,,0.00,Wunderground v.1.15,2013-10-22 19:10:00,
2013-10-22 15:15:00,55.7,47.9,29.74,WSW,255,1.0,8.0,75,0.00,,,0.00,Wunderground v.1.15,2013-10-22 19:15:00,
2013-10-22 15:20:00,55.9,48.1,29.75,WSW,252,1.0,1.0,75,0.00,,,0.00,Wunderground v.1.15,2013-10-22 19:20:00,
2013-10-22 15:25:00,56.0,47.8,29.74,SSW,204,1.0,4.0,74,0.00,,,0.00,Wunderground v.1.15,2013-10-22 19:25:00,
2013-10-22 15:30:00,56.0,47.5,29.74,WSW,240,1.0,1.0,73,0.00,,,0.00,Wunderground v.1.15,2013-10-22 19:30:00,
2013-10-22 15:35:00,55.9,47.4,29.75,SW,236,1.0,2.0,73,0.00,,,0.00,Wunderground v.1.15,2013-10-22 19:35:00,
2013-10-22 15:40:00,55.8,47.6,29.75,West,275,1.0,1.0,74,0.00,,,0.00,Wunderground v.1.15,2013-10-22 19:40:00,
2013-10-22 15:50:00,55.9,47.7,29.75,West,275,0.0,8.0,74,0.00,,,0.00,Wunderground v.1.15,2013-10-22 19:50:00,
2013-10-22 15:55:00,56.0,47.8,29.75,West,275,0.0,8.0,74,0.00,,,0.00,Wunderground v.1.15,2013-10-22 19:55:00,
2013-10-22 16:05:00,56.1,48.3,29.75,North,11,0.0,8.0,75,0.00,,,0.00,Wunderground v.1.15,2013-10-22 20:05:00,
2013-10-22 16:10:00,56.0,48.2,29.75,SW,231,1.0,8.0,75,0.00,,,0.00,Wunderground v.1.15,2013-10-22 20:10:00,
2013-10-22 16:15:00,56.0,48.2,29.75,SW,230,1.0,8.0,75,0.00,,,0.00,Wunderground v.1.15,2013-10-22 20:15:00,
2013-10-22 16:25:00,56.2,48.4,29.75,WSW,237,1.0,8.0,75,0.00,,,0.00,Wunderground v.1.15,2013-10-22 20:25:00,
2013-10-22 16:30:00,56.3,47.8,29.74,SSW,210,1.0,8.0,73,0.00,,,0.00,Wunderground v.1.15,2013-10-22 20:30:00,
2013-10-22 16:35:00,56.2,47.7,29.74,West,261,1.0,8.0,73,0.00,,,0.00,Wunderground v.1.15,2013-10-22 20:35:00,
2013-10-22 16:40:00,56.1,47.6,29.74,West,271,1.0,1.0,73,0.00,,,0.00,Wunderground v.1.15,2013-10-22 20:40:00,
2013-10-22 16:45:00,56.0,47.5,29.74,WSW,247,1.0,8.0,73,0.00,,,0.00,Wunderground v.1.15,2013-10-22 20:45:00,
2013-10-22 16:50:00,55.9,47.4,29.74,SW,215,1.0,8.0,73,0.00,,,0.00,Wunderground v.1.15,2013-10-22 20:50:00,
2013-10-22 16:55:00,55.7,47.2,29.75,WSW,238,2.0,8.0,73,0.00,,,0.00,Wunderground v.1.15,2013-10-22 20:55:00,
2013-10-22 17:00:00,55.7,47.2,29.75,WSW,241,1.0,1.0,73,0.00,,,0.00,Wunderground v.1.15,2013-10-22 21:00:00,
2013-10-22 17:10:00,55.8,47.3,29.75,SW,229,1.0,1.0,73,0.00,,,0.00,Wunderground v.1.15,2013-10-22 21:10:00,
2013-10-22 17:15:00,55.7,47.5,29.75,WSW,247,1.0,8.0,74,0.00,,,0.00,Wunderground v.1.15,2013-10-22 21:15:00,
2013-10-22 17:20:00,55.5,47.3,29.75,WSW,240,1.0,1.0,74,0.00,,,0.00,Wunderground v.1.15,2013-10-22 21:20:00,
2013-10-22 17:25:00,55.4,47.6,29.75,WSW,240,0.0,8.0,75,0.00,,,0.00,Wunderground v.1.15,2013-10-22 21:25:00,
2013-10-22 17:30:00,55.1,47.3,29.75,WSW,240,0.0,8.0,75,0.00,,,0.00,Wunderground v.1.15,2013-10-22 21:30:00,
2013-10-22 17:35:00,54.8,47.4,29.75,NW,317,0.0,8.0,76,0.00,,,0.00,Wunderground v.1.15,2013-10-22 21:35:00,
2013-10-22 17:45:00,54.3,46.9,29.75,NW,315,0.0,8.0,76,0.00,,,0.00,Wunderground v.1.15,2013-10-22 21:45:00,
2013-10-22 17:50:00,54.1,46.7,29.75,NW,315,0.0,8.0,76,0.00,,,0.00,Wunderground v.1.15,2013-10-22 21:50:00,
2013-10-22 18:00:00,53.6,46.6,29.75,NW,315,0.0,8.0,77,0.00,,,0.00,Wunderground v.1.15,2013-10-22 22:00:00,
2013-10-22 18:05:00,53.2,46.5,29.75,NW,315,0.0,8.0,78,0.00,,,0.00,Wunderground v.1.15,2013-10-22 22:05:00,
2013-10-22 18:10:00,52.9,46.6,29.76,NW,315,0.0,8.0,79,0.00,,,0.00,Wunderground v.1.15,2013-10-22 22:10:00,
2013-10-22 18:15:00,52.4,46.4,29.75,NNE,23,1.0,8.0,80,0.00,,,0.00,Wunderground v.1.15,2013-10-22 22:15:00,
2013-10-22 18:20:00,52.0,46.0,29.76,NE,43,2.0,2.0,80,0.00,,,0.00,Wunderground v.1.15,2013-10-22 22:20:00,
2013-10-22 18:30:00,51.2,45.9,29.76,NE,43,1.0,8.0,82,0.00,,,0.00,Wunderground v.1.15,2013-10-22 22:30:00,
2013-10-22 18:35:00,50.6,45.6,29.76,NE,42,1.0,8.0,83,0.00,,,0.00,Wunderground v.1.15,2013-10-22 22:35:00,
2013-10-22 18:40:00,50.2,45.6,29.76,NE,38,1.0,8.0,84,0.00,,,0.00,Wunderground v.1.15,2013-10-22 22:40:00,
2013-10-22 18:45:00,49.9,45.6,29.77,NE,38,1.0,8.0,85,0.00,,,0.00,Wunderground v.1.15,2013-10-22 22:45:00,
2013-10-22 18:50:00,49.6,45.3,29.77,NE,39,1.0,8.0,85,0.00,,,0.00,Wunderground v.1.15,2013-10-22 22:50:00,
2013-10-22 18:55:00,49.3,45.3,29.77,NE,39,0.0,8.0,86,0.00,,,0.00,Wunderground v.1.15,2013-10-22 22:55:00,
2013-10-22 19:00:00,49.1,45.1,29.77,NE,39,0.0,8.0,86,0.00,,,0.00,Wunderground v.1.15,2013-10-22 23:00:00,
2013-10-22 19:05:00,49.0,45.3,29.77,NE,39,0.0,8.0,87,0.00,,,0.00,Wunderground v.1.15,2013-10-22 23:05:00,
2013-10-22 19:10:00,48.7,45.0,29.77,NE,39,0.0,8.0,87,0.00,,,0.00,Wunderground v.1.15,2013-10-22 23:10:00,
2013-10-22 19:20:00,47.9,43.9,29.77,NE,47,2.0,2.0,86,0.00,,,0.00,Wunderground v.1.15,2013-10-22 23:20:00,
2013-10-22 19:25:00,47.6,43.6,29.77,NE,47,1.0,8.0,86,0.00,,,0.00,Wunderground v.1.15,2013-10-22 23:25:00,
2013-10-22 19:30:00,47.4,43.4,29.78,NE,47,0.0,8.0,86,0.00,,,0.00,Wunderground v.1.15,2013-10-22 23:30:00,
2013-10-22 19:40:00,46.7,43.0,29.78,NE,47,0.0,8.0,87,0.00,,,0.00,Wunderground v.1.15,2013-10-22 23:40:00,
2013-10-22 19:45:00,46.4,42.7,29.78,NE,47,0.0,8.0,87,0.00,,,0.00,Wunderground v.1.15,2013-10-22 23:45:00,
2013-10-22 19:50:00,46.2,42.2,29.78,NE,47,0.0,8.0,86,0.00,,,0.00,Wunderground v.1.15,2013-10-22 23:50:00,
2013-10-22 19:55:00,45.9,41.6,29.78,NE,44,1.0,8.0,85,0.00,,,0.00,Wunderground v.1.15,2013-10-22 23:55:00,
2013-10-22 20:00:00,45.7,41.4,29.78,NE,52,1.0,8.0,85,0.00,,,0.00,Wunderground v.1.15,2013-10-23 00:00:00,
2013-10-22 20:05:00,45.6,41.0,29.79,NE,42,1.0,8.0,84,0.00,,,0.00,Wunderground v.1.15,2013-10-23 00:05:00,
2013-10-22 20:10:00,45.5,40.9,29.79,NE,38,2.0,8.0,84,0.00,,,0.00,Wunderground v.1.15,2013-10-23 00:10:00,
2013-10-22 20:15:00,45.5,40.9,29.79,NE,44,2.0,8.0,84,0.00,,,0.00,Wunderground v.1.15,2013-10-23 00:15:00,
2013-10-22 20:20:00,45.5,40.6,29.79,NNE,33,1.0,1.0,83,0.00,,,0.00,Wunderground v.1.15,2013-10-23 00:20:00,
2013-10-22 20:30:00,45.2,40.3,29.79,NNE,32,1.0,1.0,83,0.00,,,0.00,Wunderground v.1.15,2013-10-23 00:30:00,
2013-10-22 20:35:00,45.2,40.3,29.79,NNE,32,1.0,8.0,83,0.00,,,0.00,Wunderground v.1.15,2013-10-23 00:35:00,
2013-10-22 20:45:00,45.1,40.2,29.79,NE,46,0.0,8.0,83,0.00,,,0.00,Wunderground v.1.15,2013-10-23 00:45:00,
2013-10-22 20:50:00,44.8,40.0,29.79,NE,46,0.0,8.0,83,0.00,,,0.00,Wunderground v.1.15,2013-10-23 00:50:00,
2013-10-22 20:55:00,44.7,39.9,29.79,NE,46,0.0,8.0,83,0.00,,,0.00,Wunderground v.1.15,2013-10-23 00:55:00,
2013-10-22 21:00:00,44.5,40.0,29.80,NE,46,0.0,8.0,84,0.00,,,0.00,Wunderground v.1.15,2013-10-23 01:00:00,
2013-10-22 21:05:00,44.3,39.8,29.80,NE,46,0.0,8.0,84,0.00,,,0.00,Wunderground v.1.15,2013-10-23 01:05:00,
2013-10-22 21:10:00,44.0,39.8,29.80,NE,46,0.0,8.0,85,0.00,,,0.00,Wunderground v.1.15,2013-10-23 01:10:00,
2013-10-22 21:15:00,43.7,39.5,29.80,NE,46,0.0,8.0,85,0.00,,,0.00,Wunderground v.1.15,2013-10-23 01:15:00,
2013-10-22 21:25:00,43.2,39.3,29.80,NE,46,0.0,8.0,86,0.00,,,0.00,Wunderground v.1.15,2013-10-23 01:25:00,
2013-10-22 21:30:00,43.0,39.1,29.80,NE,46,0.0,8.0,86,0.00,,,0.00,Wunderground v.1.15,2013-10-23 01:30:00,
2013-10-22 21:35:00,42.9,39.3,29.81,NE,46,0.0,8.0,87,0.00,,,0.00,Wunderground v.1.15,2013-10-23 01:35:00,
2013-10-22 21:40:00,42.9,39.0,29.81,NE,46,0.0,8.0,86,0.00,,,0.00,Wunderground v.1.15,2013-10-23 01:40:00,
2013-10-22 21:45:00,42.9,39.0,29.81,NE,46,0.0,8.0,86,0.00,,,0.00,Wunderground v.1.15,2013-10-23 01:45:00,
2013-10-22 21:50:00,42.9,39.0,29.81,NE,46,0.0,8.0,86,0.00,,,0.00,Wunderground v.1.15,2013-10-23 01:50:00,
2013-10-22 21:55:00,42.7,39.1,29.81,NE,46,0.0,8.0,87,0.00,,,0.00,Wunderground v.1.15,2013-10-23 01:55:00,
2013-10-22 22:05:00,42.3,38.7,29.81,NE,46,0.0,8.0,87,0.00,,,0.00,Wunderground v.1.15,2013-10-23 02:05:00,
2013-10-22 22:10:00,42.0,38.7,29.81,NE,46,0.0,8.0,88,0.00,,,0.00,Wunderground v.1.15,2013-10-23 02:10:00,
2013-10-22 22:15:00,41.4,38.4,29.81,NE,46,0.0,8.0,89,0.00,,,0.00,Wunderground v.1.15,2013-10-23 02:15:00,
2013-10-22 22:20:00,41.1,38.4,29.81,NE,46,1.0,8.0,90,0.00,,,0.00,Wunderground v.1.15,2013-10-23 02:20:00,
2013-10-22 22:25:00,41.1,38.1,29.81,NE,46,1.0,8.0,89,0.00,,,0.00,Wunderground v.1.15,2013-10-23 02:25:00,
2013-10-22 22:30:00,41.5,38.2,29.82,NE,46,1.0,1.0,88,0.00,,,0.00,Wunderground v.1.15,2013-10-23 02:30:00,
2013-10-22 22:35:00,41.8,38.5,29.82,NE,46,1.0,8.0,88,0.00,,,0.00,Wunderground v.1.15,2013-10-23 02:35:00,
2013-10-22 22:40:00,42.1,38.5,29.82,NE,34,0.0,8.0,87,0.00,,,0.00,Wunderground v.1.15,2013-10-23 02:40:00,
2013-10-22 22:45:00,42.3,38.4,29.82,NE,34,0.0,8.0,86,0.00,,,0.00,Wunderground v.1.15,2013-10-23 02:45:00,
2013-10-22 22:55:00,42.1,38.5,29.82,NE,34,0.0,8.0,87,0.00,,,0.00,Wunderground v.1.15,2013-10-23 02:55:00,
2013-10-22 23:00:00,41.9,38.3,29.82,NE,34,0.0,8.0,87,0.00,,,0.00,Wunderground v.1.15,2013-10-23 03:00:00,
2013-10-22 23:05:00,41.6,38.0,29.82,NE,34,0.0,8.0,87,0.00,,,0.00,Wunderground v.1.15,2013-10-23 03:05:00,
2013-10-22 23:10:00,41.4,38.1,29.82,NE,34,0.0,8.0,88,0.00,,,0.00,Wunderground v.1.15,2013-10-23 03:10:00,
2013-10-22 23:15:00,41.0,38.0,29.81,NE,34,1.0,8.0,89,0.00,,,0.00,Wunderground v.1.15,2013-10-23 03:15:00,
2013-10-22 23:20:00,40.8,37.8,29.82,NE,34,1.0,1.0,89,0.00,,,0.00,Wunderground v.1.15,2013-10-23 03:20:00,
2013-10-22 23:25:00,40.6,37.6,29.81,NE,34,0.0,8.0,89,0.00,,,0.00,Wunderground v.1.15,2013-10-23 03:25:00,
2013-10-22 23:30:00,40.6,37.6,29.81,NE,34,0.0,8.0,89,0.00,,,0.00,Wunderground v.1.15,2013-10-23 03:30:00,
2013-10-22 23:35:00,40.5,37.5,29.81,NE,34,0.0,8.0,89,0.00,,,0.00,Wunderground v.1.15,2013-10-23 03:35:00,
2013-10-22 23:40:00,40.4,37.4,29.81,NE,34,0.0,8.0,89,0.00,,,0.00,Wunderground v.1.15,2013-10-23 03:40:00,
2013-10-22 23:45:00,40.2,36.9,29.81,NE,34,0.0,8.0,88,0.00,,,0.00,Wunderground v.1.15,2013-10-23 03:45:00,
2013-10-22 23:55:00,40.1,36.8,29.81,NE,34,0.0,8.0,88,0.00,,,0.00,Wunderground v.1.15,2013-10-23 03:55:00,